• Join FlightAware (Why Join?)
  • Login
  • US Flag 
07:54AM EDT


 

Airport Tracker/Info


-or-


 

Live Flight TrackerFlight Track Log ✈ EJA372 ✈ 11-Jul-2013 ✈ KIXD - KCLE

Flight Track Log - Related Links

Times and Time Zones

All times are in EDT time to prevent confusion due to time zone crossing. See the EJA372 flight status page for this flight to view local times or setup timezone preferences in your user account.

Time Position Orientation Groundspeed Altitude Reporting Facility
EDT Latitude Longitude Course Direction KTS MPH feet Rate Location/Type
11:14PM 38.8167 -94.9000 180° South 171 197 1,700  Level Kansas City TRACON
11:15PM 38.7833 -94.9000 180° South 228 262 3,000 2,100 Climbing Kansas City TRACON
11:16PM 38.7333 -94.8333 134° Southeast 268 308 5,300 3,180 Climbing Kansas City TRACON
11:17PM 38.7833 -94.7500 52° Northeast 289 333 9,400 2,460 Climbing Kansas City TRACON
11:18PM 38.8469 -94.6314 55° Northeast 354 407 11,000 1,080 Climbing Kansas City Center
11:19PM 38.8658 -94.5106 79° East 361 415 11,900 1,860 Climbing Kansas City Center
11:20PM 38.8842 -94.3856 79° East 371 427 14,900 3,120 Climbing Kansas City Center
11:21PM 38.9064 -94.2431 79° East 365 420 18,300 2,820 Climbing Kansas City Center
11:22PM 38.9242 -94.1169 80° East 374 430 20,700 2,280 Climbing Kansas City Center
11:23PM 38.9472 -93.9622 79° East 392 451 23,000 1,980 Climbing Kansas City Center
11:24PM 38.9672 -93.8233 79° East 412 474 24,800 1,740 Climbing Kansas City Center
11:25PM 38.9919 -93.6597 79° East 427 491 26,600 1,620 Climbing Kansas City Center
11:26PM 39.0147 -93.5078 79° East 436 502 28,200 1,500 Climbing Kansas City Center
11:27PM 39.0372 -93.3544 79° East 445 512 29,700 1,440 Climbing Kansas City Center
11:28PM 39.0592 -93.1983 80° East 449 517 31,200 1,380 Climbing Kansas City Center
11:29PM 39.0808 -93.0414 80° East 449 517 32,600 1,380 Climbing Kansas City Center
11:30PM 39.1022 -92.8869 80° East 447 514 34,100 1,500 Climbing Kansas City Center
11:31PM 39.1264 -92.7139 80° East 446 513 35,700 1,440 Climbing Kansas City Center
11:32PM 39.1478 -92.5561 80° East 446 513 37,100 1,260 Climbing Kansas City Center
11:33PM 39.1692 -92.4003 80° East 443 510 38,300 1,080 Climbing Kansas City Center
11:34PM 39.1892 -92.2419 81° East 443 510 39,300 840 Climbing Kansas City Center
11:35PM 39.2100 -92.0822 80° East 448 516 40,100 780 Climbing Kansas City Center
11:36PM 39.2303 -91.9225 81° East 449 517 40,900 420 Climbing Kansas City Center
11:37PM 39.2517 -91.7656 80° East 449 517 41,000  Climbing Kansas City Center
11:38PM 39.2725 -91.6094 80° East 450 518 41,000  Level Kansas City Center
11:39PM 39.2964 -91.4200 81° East 449 517 41,000  Level Kansas City Center
11:40PM 39.3156 -91.2631 81° East 445 512 41,000  Level Kansas City Center
11:41PM 39.3344 -91.1069 81° East 442 509 41,000  Level Kansas City Center
11:42PM 39.3539 -90.9506 81° East 441 507 41,000  Level Kansas City Center
11:43PM 39.3731 -90.7950 81° East 439 505 41,000  Level Kansas City Center
11:44PM 39.3906 -90.6389 82° East 438 504 41,000  Level Kansas City Center
11:45PM 39.4094 -90.4814 81° East 440 506 41,000  Level Kansas City Center
11:46PM 39.4278 -90.3242 81° East 441 507 41,000  Level Kansas City Center
11:47PM 39.4464 -90.1661 81° East 442 509 41,000  Level Kansas City Center
11:48PM 39.4636 -90.0064 82° East 446 513 41,000  Level Kansas City Center
11:49PM 39.4817 -89.8464 82° East 447 514 41,000  Level Kansas City Center
11:50PM 39.4983 -89.6883 82° East 445 512 41,000  Level Kansas City Center
11:51PM 39.5156 -89.5300 82° East 444 511 41,000  Level Kansas City Center
11:52PM 39.5369 -89.3403 82° East 444 511 41,000  Level Kansas City Center
11:54PM 39.5519 -89.1908 83° East 447 514 41,000  Level Kansas City Center
11:55PM 39.5689 -89.0308 82° East 450 518 41,000  Level Kansas City Center
11:56PM 39.5856 -88.8717 82° East 449 517 41,000  Level Kansas City Center
11:57PM 39.6025 -88.7106 82° East 451 519 41,000  Level Kansas City Center
11:58PM 39.6206 -88.5200 83° East 452 520 41,000  Level Kansas City Center
11:59PM 39.6372 -88.3544 83° East 457 526 41,000  Level Kansas City Center
12:00AM 39.6550 -88.1864 82° East 462 532 41,000  Level Kansas City Center
12:01AM 39.6686 -88.0250 84° East 459 528 41,000  Level Kansas City Center
12:02AM 39.6828 -87.8797 83° East 463 533 41,000  Level Indianapolis Center
12:03AM 39.6986 -87.7150 83° East 463 533 41,000  Level Indianapolis Center
12:04AM 39.7139 -87.5486 83° East 463 533 41,000  Level Indianapolis Center
12:05AM 39.7283 -87.3822 84° East 466 536 41,000  Level Indianapolis Center
12:06AM 39.7428 -87.2189 83° East 460 529 41,000  Level Indianapolis Center
12:07AM 39.7583 -87.0539 83° East 460 529 41,000 -480 Level Indianapolis Center
12:08AM 39.7722 -86.8897 84° East 461 531 40,100 -960 Descending Indianapolis Center
12:09AM 39.7861 -86.7231 84° East 464 534 39,100 -1,020 Descending Indianapolis Center
12:10AM 39.8000 -86.5542 84° East 468 539 38,100 -1,080 Descending Indianapolis Center
12:11AM 39.8169 -86.3508 84° East 470 541 37,000 -1,080 Descending Indianapolis Center
12:12AM 39.8253 -86.1833 86° East 464 534 36,000 -960 Descending Indianapolis Center
12:13AM 39.8344 -86.0403 85° East 463 533 35,100 -540 Descending Indianapolis Center
12:14AM 39.8433 -85.8728 86° East 465 535 35,000 -60 Descending Indianapolis Center
12:15AM 39.8539 -85.7044 85° East 467 537 35,000  Level Indianapolis Center
12:16AM 39.8639 -85.5011 86° East 470 541 35,000  Level Indianapolis Center
12:17AM 39.9064 -85.3522 70° East 444 511 35,000 -540 Level Indianapolis Center
12:18AM 39.9656 -85.2186 60° Northeast 430 495 34,000 -1,140 Descending Indianapolis Center
12:19AM 40.0272 -85.0819 59° Northeast 439 505 32,800 -1,200 Descending Indianapolis Center
12:20AM 40.0883 -84.9464 59° Northeast 438 504 31,600 -1,260 Descending Indianapolis Center
12:21AM 40.1539 -84.7961 60° Northeast 438 504 30,300 -1,320 Descending Indianapolis Center
12:22AM 40.2150 -84.6594 60° Northeast 434 499 29,000 -660 Descending Indianapolis Center
12:23AM 40.2744 -84.5225 60° Northeast 431 496 29,000  Level Indianapolis Center
12:24AM 40.3344 -84.3842 60° Northeast 431 496 29,000  Level Indianapolis Center
12:25AM 40.3931 -84.2456 61° Northeast 430 495 29,000  Level Indianapolis Center
12:26AM 40.4531 -84.1075 60° Northeast 430 495 29,000 -1,020 Level Indianapolis Center
12:27AM 40.5103 -83.9719 61° Northeast 421 484 27,000 -2,100 Descending Indianapolis Center
12:28AM 40.5658 -83.8444 60° Northeast 401 461 24,800 -2,160 Descending Indianapolis Center
12:29AM 40.6181 -83.7192 61° Northeast 388 447 22,700 -1,920 Descending Indianapolis Center
12:30AM 40.6711 -83.5903 61° Northeast 394 453 21,000 -900 Descending Indianapolis Center
12:31AM 40.7250 -83.4636 61° Northeast 393 452 21,000 -660 Level Indianapolis Center
12:32AM 40.7758 -83.3408 61° Northeast 380 437 19,700 -1,380 Descending Indianapolis Center
12:33AM 40.8189 -83.2347 62° Northeast 373 429 18,300 -1,380 Descending Indianapolis Center
12:34AM 40.8675 -83.1211 60° Northeast 357 411 17,000 -1,380 Descending Indianapolis Center
12:35AM 40.9147 -83.0061 61° Northeast 353 406 15,600 -1,440 Descending Indianapolis Center
12:36AM 40.9597 -82.8939 62° Northeast 346 398 14,200 -1,380 Descending Indianapolis Center
12:37AM 41.0053 -82.7861 61° Northeast 335 386 12,900 -1,320 Descending Indianapolis Center
12:38AM 41.0469 -82.6833 62° Northeast 316 364 11,600 -1,200 Descending Indianapolis Center
12:39AM 41.0828 -82.5917 63° Northeast 285 328 10,500 -840 Descending Indianapolis Center
12:40AM 41.1222 -82.4847 64° Northeast 323 372 10,000 -540 Descending Indianapolis Center